Weather History for KTCC - February, 2013

Change the Weather History Date:

Saturday, February 9, 2013

  Actual Average Record
Temperature  
Mean Temperature 53 °F -  
Max Temperature 69 °F 54 °F 80 °F (1957)
Min Temperature 37 °F 24 °F -13 °F (1933)
Degree Days  
Heating Degree Days 12    
Growing Degree Days 3 (Base 50)    
Moisture  
Dew Point 15 °F    
Average Humidity 28    
Maximum Humidity 59    
Minimum Humidity 9    
Precipitation  
Precipitation 0.00 in - - ()
Sea Level Pressure  
Sea Level Pressure 29.60 in    
Wind  
Wind Speed 24 mph (SW)    
Max Wind Speed 56 mph    
Max Gust Speed 68 mph    
Visibility 6 miles    
Events Rain    
Averages and records for this station are not official NWS values.
T = Trace of Precipitation, MM = Missing Value Source: NWS Daily Summary

Daily Weather History Graph

Daily Weather History Graph

Search for Another Location

Airport or City:

Trip Planner

Search our weather history database for the weather conditions in past years. The results will help you decide how hot, cold, wet, or windy it might be!

Date:

Astronomy

Feb. 09, 2013 Rise Set
Actual Time 6:46 AM MST 5:31 PM MST
Civil Twilight 6:20 AM MST 5:57 PM MST
Nautical Twilight 5:50 AM MST 6:27 PM MST
Astronomical Twilight 5:20 AM MST 6:57 PM MST
Moon 6:00 AM MST (2/9) 5:15 PM MST (2/9)
Length of Visible Light 11h 37m
Length of Day
10h 44m
Waning Crescent, 0% of the Moon is Illuminated
Feb 9
Waning Crescent
Feb 10
New
Feb 17
First Quarter
Feb 25
Full
Mar 4
Last Quarter

Hourly Weather History & Observations

Time (MST) Temp. Windchill Dew Point Humidity Pressure Visibility Wind Dir Wind Speed Gust Speed Precip Events Conditions
12:53 AM 45.0 °F 36.4 °F 19.9 °F 37% 29.82 in 10.0 mi South 23.0 mph - N/A   Clear
1:53 AM 43.0 °F 36.0 °F 19.9 °F 40% 29.81 in 10.0 mi South 13.8 mph - N/A   Clear
2:53 AM 42.1 °F 35.7 °F 19.9 °F 41% 29.77 in 10.0 mi South 11.5 mph - N/A   Clear
3:53 AM 39.9 °F 35.8 °F 19.9 °F 45% 29.75 in 10.0 mi SE 5.8 mph - N/A   Clear
4:53 AM 41.0 °F 35.8 °F 21.9 °F 47% 29.73 in 10.0 mi SSE 8.1 mph - N/A   Clear
5:53 AM 39.0 °F 34.0 °F 23.0 °F 53% 29.72 in 10.0 mi SE 6.9 mph - N/A   Clear
6:53 AM 37.0 °F 34.5 °F 24.1 °F 59% 29.72 in 10.0 mi South 3.5 mph - N/A   Clear
7:53 AM 42.1 °F 39.2 °F 26.1 °F 53% 29.70 in 10.0 mi SW 4.6 mph - N/A   Clear
8:53 AM 46.9 °F - 28.0 °F 48% 29.68 in 10.0 mi South 12.7 mph - N/A   Clear
9:53 AM 52.0 °F - 30.0 °F 43% 29.64 in 10.0 mi SSW 13.8 mph - N/A   Clear
10:53 AM 57.9 °F - 28.9 °F 33% 29.58 in 10.0 mi SSW 12.7 mph - N/A   Clear
11:53 AM 64.0 °F - 25.0 °F 23% 29.49 in 10.0 mi SSW 25.3 mph 38.0 mph N/A   Clear
12:53 PM 68.0 °F - 16.0 °F 14% 29.42 in 9.0 mi SW 34.5 mph 43.7 mph N/A   Partly Cloudy
1:53 PM 69.1 °F - 16.0 °F 13% 29.38 in 10.0 mi SW 32.2 mph 42.6 mph N/A   Partly Cloudy
2:49 PM 64.4 °F - 3.2 °F 9% 29.50 in 2.0 mi WSW 44.9 mph 56.4 mph N/A   Haze
2:53 PM 64.0 °F - 5.0 °F 10% 29.42 in 2.0 mi WSW 42.6 mph 56.4 mph N/A   Haze
3:04 PM 62.6 °F - 6.8 °F 11% 29.51 in 1.5 mi WSW 44.9 mph 58.7 mph N/A   Haze
3:13 PM 62.6 °F - 8.6 °F 12% 29.51 in 1.8 mi WSW 36.8 mph 56.4 mph N/A   Haze
3:16 PM 62.6 °F - 8.6 °F 12% 29.51 in 2.0 mi WSW 36.8 mph 50.6 mph N/A   Haze
3:40 PM 60.8 °F - 10.4 °F 14% 29.52 in 3.0 mi WSW 46.0 mph 61.0 mph N/A   Haze
3:46 PM 60.8 °F - 10.4 °F 14% 29.52 in 1.5 mi WSW 56.4 mph 67.9 mph N/A   Haze
3:53 PM 57.9 °F - 14.0 °F 18% 29.46 in 0.5 mi West 43.7 mph 67.9 mph 0.00 in Rain Light Rain
4:08 PM 55.4 °F - 17.6 °F 23% 29.54 in 0.5 mi West 41.4 mph 57.5 mph 0.00 in   Haze
4:31 PM 53.6 °F - 19.4 °F 26% 29.56 in 0.8 mi West 41.4 mph 50.6 mph 0.00 in   Haze
4:53 PM 50.0 °F - 18.0 °F 28% 29.54 in 0.5 mi West 35.7 mph 56.4 mph 0.00 in   Haze
5:17 PM 48.2 °F - 17.6 °F 30% 29.60 in 2.0 mi West 40.3 mph 47.2 mph N/A   Haze
5:46 PM 46.4 °F 36.3 °F 10.4 °F 23% 29.61 in 3.0 mi West 36.8 mph 49.5 mph N/A   Haze
5:53 PM 46.0 °F 36.2 °F 10.9 °F 24% 29.58 in 3.0 mi West 33.4 mph 49.5 mph N/A   Haze
6:11 PM 44.6 °F 34.6 °F 8.6 °F 23% 29.63 in 9.0 mi West 31.1 mph 39.1 mph N/A   Scattered Clouds
6:53 PM 44.1 °F 34.2 °F 7.0 °F 22% 29.62 in 6.0 mi West 28.8 mph 41.4 mph N/A   Haze
7:53 PM 43.0 °F 34.5 °F 3.9 °F 20% 29.64 in 10.0 mi WSW 19.6 mph - N/A   Clear
8:53 PM 43.0 °F 33.1 °F 7.0 °F 23% 29.65 in 10.0 mi WSW 26.5 mph 33.4 mph N/A   Clear
9:53 PM 41.0 °F 29.1 °F 10.0 °F 28% 29.64 in 10.0 mi WSW 34.5 mph 41.4 mph N/A   Clear
10:53 PM 41.0 °F 29.1 °F 12.0 °F 31% 29.62 in 9.0 mi WSW 34.5 mph 49.5 mph N/A   Clear
11:53 PM 41.0 °F 28.6 °F 10.9 °F 29% 29.60 in 8.0 mi WSW 38.0 mph 54.1 mph N/A   Clear